Regional Weather Roundup
Issued by NWS

Home | Current Version | Previous Version | Text Only | Print | Product List | Glossary On
Versions: 1 2 3 4 5 6 7 8 9 10 11 12 13 14 15 16 17 18 19 20 21 22 23 24 25 26 27 28 29 30 31 32 33 34 35 36 37 38 39 40 41 42 43 44 45 46 47 48 49 50
000
ASUS42 KKEY 010110
RWRKEY

FLORIDA REGIONAL WEATHER ROUNDUP FOR THE FLORIDA KEYS
NATIONAL WEATHER SERVICE KEY WEST FLORIDA
900 PM EDT TUE JUN 30 2015

...SOUTH FLORIDA AND THE KEYS...

CITY           SKY/WX    TMP DP  RH WIND       PRES   REMARKS
FORT MYERS     FAIR      86  72  62 NW8       30.08S HX  92
SW REGIONAL AP MOCLDY    86  71  60 E5        30.10R HX  91
NAPLES         FAIR      87  73  62 NW5       30.09S HX  94
MIAMI          MOCLDY    85  72  65 SE7       30.11R HX  91
WEST KENDALL   PTCLDY    84  73  69 S5        30.11R HX  90
HOMESTEAD      FAIR      82  74  76 S5        30.11R
MARATHON       PTCLDY    85  77  77 SE8       30.10R HX  95
BOCA CHICA NAS MOCLDY    85  75  72 SE10      30.09S HX  93
KEY WEST INTL  PTCLDY    85  77  77 SE10      30.10S HX  95

...INTERNATIONAL WEATHER...

CITY           SKY/WX    TMP DP  RH WIND       PRES   REMARKS
NASSAU BAHAMAS MOCLDY    84  73  70 SE9       30.14S HX  91
CANCUN MEXICO  PTCLDY    82  79  89 E7        30.04R HX  93
COZUMEL MEXICO PTCLDY    79  77  94 CALM      30.03S

ADJACENT COASTAL WATERS...

STATION/POSITION TIME  SKY/WX   TEMP    WIND        PRES    WAVE
                                AIR SEA DIR/SP/G            HT/PER
                 (UTC)          (F)     (DEG/KT/KT) (MB)    (FT/S)
PULASKI SHOAL LI 0000            86      90/  7/  9 1019.0R
SAND KEY         0050            84     140/ 12/ 13 1019.1R
SOMBRERO KEY     0000            85     140/ 14/ 15 1019.5F
LONG KEY         0000            85 91  140/ 10/ 13 1019.8R
MOLASSES REEF    0000            84 85  140/ 12/ 13 1018.8F
FOWEY ROCKS      NOT AVBL

$$



USA.gov is the U.S. government's official web portal to all federal, state and local government web resources and services.